Fort Stockton, TX

6:26 AM CDT on March 29, 2017 (GMT -0500)
Fort Stockton-Pecos County

Weather History for KFST - January, 2012

Change the Weather History Date:

Thursday, January 5, 2012

  Actual Average Record
Temperature  
Mean Temperature 52 °F -  
Max Temperature 66 °F 59 °F 80 °F (2008)
Min Temperature 37 °F 35 °F 25 °F (2017)
Degree Days  
Heating Degree Days 14    
Growing Degree Days 2 (Base 50)    
Moisture  
Dew Point 19 °F    
Average Humidity 33    
Maximum Humidity 54    
Minimum Humidity 12    
Precipitation  
Precipitation 0.00 in - - ()
Sea Level Pressure  
Sea Level Pressure 30.20 in    
Wind  
Wind Speed 9 mph (SW)    
Max Wind Speed 16 mph    
Max Gust Speed -    
Visibility 10 miles    
Events      
Averages and records for this station are not official NWS values.
T = Trace of Precipitation, MM = Missing Value Source: NWS Daily Summary

Daily Weather History Graph

Daily Weather History Graph

Search for Another Location

Airport or City:

Trip Planner

Search our weather history database for the weather conditions in past years. The results will help you decide how hot, cold, wet, or windy it might be!

Date:

Astronomy

Jan. 05, 2012 Rise Set
Actual Time 7:50 AM CST 6:03 PM CST
Civil Twilight 7:23 AM CST 6:30 PM CST
Nautical Twilight 6:53 AM CST 7:00 PM CST
Astronomical Twilight 6:24 AM CST 7:29 PM CST
Moon 3:09 PM CST (1/5) 4:37 AM CST (1/5)
Length of Visible Light 11h 06m
Length of Day
10h 13m
Waxing Gibbous, 88% of the Moon is Illuminated
Jan 5
Waxing Gibbous
Jan 9
Full
Jan 16
Last Quarter
Jan 23
New
Jan 30
First Quarter

Hourly Weather History & Observations

Time (CST) Temp. Windchill Dew Point Humidity Pressure Visibility Wind Dir Wind Speed Gust Speed Precip Events Conditions
12:53 AM 39.9 °F 33.9 °F 23.0 °F 51% 30.32 in 10.0 mi SSW 9.2 mph - N/A   Clear
1:53 AM 39.0 °F 31.8 °F 21.9 °F 50% 30.31 in 10.0 mi SW 11.5 mph - N/A   Clear
2:53 AM 39.9 °F 32.1 °F 21.9 °F 49% 30.30 in 10.0 mi SW 13.8 mph - N/A   Clear
3:53 AM 39.9 °F 33.4 °F 21.9 °F 49% 30.30 in 10.0 mi SW 10.4 mph - N/A   Clear
4:53 AM 39.0 °F 31.8 °F 21.9 °F 50% 30.29 in 10.0 mi SW 11.5 mph - N/A   Clear
5:53 AM 37.0 °F 28.9 °F 21.9 °F 54% 30.30 in 10.0 mi SW 12.7 mph - N/A   Clear
6:53 AM 37.0 °F 28.9 °F 21.9 °F 54% 30.30 in 10.0 mi SW 12.7 mph - N/A   Clear
7:53 AM 37.9 °F 30.0 °F 21.9 °F 53% 30.30 in 10.0 mi SW 12.7 mph - N/A   Clear
8:53 AM 44.1 °F 38.6 °F 21.9 °F 42% 30.31 in 10.0 mi SW 10.4 mph - N/A   Clear
9:53 AM 51.1 °F - 23.0 °F 33% 30.31 in 10.0 mi SW 6.9 mph - N/A   Clear
10:53 AM 55.9 °F - 21.9 °F 27% 30.30 in 10.0 mi SSW 4.6 mph - N/A   Clear
11:53 AM 60.1 °F - 19.0 °F 20% 30.26 in 10.0 mi SSE 3.5 mph - N/A   Clear
12:53 PM 63.0 °F - 18.0 °F 18% 30.21 in 10.0 mi SW 6.9 mph - N/A   Clear
1:53 PM 64.9 °F - 17.1 °F 16% 30.16 in 10.0 mi WSW 8.1 mph - N/A   Clear
2:53 PM 64.9 °F - 15.1 °F 15% 30.12 in 10.0 mi West 6.9 mph - N/A   Clear
3:53 PM 66.0 °F - 10.9 °F 12% 30.09 in 10.0 mi SW 4.6 mph - N/A   Clear
4:53 PM 66.0 °F - 10.9 °F 12% 30.08 in 10.0 mi Calm Calm - N/A   Clear
6:53 PM 53.1 °F - 15.1 °F 22% 30.09 in 10.0 mi Calm Calm - N/A   Clear
7:53 PM 51.1 °F - 15.1 °F 24% 30.08 in 10.0 mi South 6.9 mph - N/A   Clear
8:53 PM 48.0 °F - 15.1 °F 27% 30.06 in 10.0 mi South 6.9 mph - N/A   Clear
9:53 PM 48.9 °F - 15.1 °F 26% 30.04 in 10.0 mi SSW 16.1 mph - N/A   Clear
10:53 PM 48.0 °F - 16.0 °F 28% 30.02 in 10.0 mi SSW 13.8 mph - N/A   Clear
11:53 PM 45.0 °F 39.3 °F 16.0 °F 31% 30.00 in 10.0 mi SSW 11.5 mph - N/A   Clear